Regional Weather Roundup
Issued by NWS

Current Version | Previous Version | Text Only | Print | Product List | Glossary On
Versions: 1 2 3 4 5 6 7 8 9 10 11 12 13 14 15 16 17 18 19 20 21 22 23 24 25 26 27 28 29 30 31 32 33 34 35 36 37 38 39 40 41 42 43 44 45 46 47 48 49 50
000
ASUS45 KBOI 210510
RWRID
WEATHER ROUNDUP FOR IDAHO
NATIONAL WEATHER SERVICE BOISE ID
1100 PM MDT WED AUG 20 2014

NOTE: "FAIR" INDICATES FEW OR NO CLOUDS BELOW 12000 FEET
WITH NO SIGNIFICANT WEATHER AND/OR OBSTRUCTIONS TO VISIBILITY

IDZ012-014-210600-
SOUTHWEST IDAHO


CITY           SKY/WX    TMP DP  RH WIND       PRES   REMARKS
BOISE          CLOUDY    78  45  30 CALM      29.82R
CALDWELL       CLOUDY    70  46  43 CALM      29.84R
MOUNTAIN HOME  CLOUDY    73  52  47 S6        29.84R
$$

IDZ016-017-210600-
SOUTHCENTRAL IDAHO


CITY           SKY/WX    TMP DP  RH WIND       PRES   REMARKS
BURLEY         MOCLDY    66  50  56 W10G17    29.95R
JEROME         CLOUDY    62  55  77 N7        29.94R
TWIN FALLS     CLOUDY    69  51  52 SW8       29.94R
$$

IDZ019>023-210600-
SOUTHEAST IDAHO


CITY           SKY/WX    TMP DP  RH WIND       PRES   REMARKS
IDAHO FALLS    CLOUDY    62  53  72 E10       30.01F
POCATELLO      PTCLDY    58  54  86 N13       29.97R
REXBURG        CLOUDY    57  49  74 E6        30.03F
$$

IDZ006-010-011-018-031-032-210600-
CENTRAL IDAHO MOUNTAINS


CITY           SKY/WX    TMP DP  RH WIND       PRES   REMARKS
MCCALL         MOCLDY    58  49  72 N8        29.97S
HAILEY         PTCLDY    63  50  63 CALM      29.99R
STANLEY          N/A     51  44  77 S3        30.06R
SALMON         CLOUDY    57  54  88 N3        30.00R
CHALLIS        CLOUDY    57  52  83 N9        30.01R
$$

IDZ002-004-006-007-026-210600-
NORTHERN IDAHO


CITY           SKY/WX    TMP DP  RH WIND       PRES   REMARKS
LEWISTON       PTCLDY    72  41  32 SW6       29.85R
LOWELL           N/A     67  59  75 CALM      29.85R
COEUR D`ALENE  CLOUDY    61  54  77 NE9       29.88S
MULLAN PASS    PTCLDY    52  45  77 NW3       30.04R
$$



USA.gov is the U.S. government's official web portal to all federal, state and local government web resources and services.